Regional Weather Roundup
Issued by NWS

Home | Current Version | Previous Version | Text Only | Print | Product List | Glossary Off
Versions: 1 2 3 4 5 6 7 8 9 10 11 12 13 14 15 16 17 18 19 20 21 22 23 24 25 26 27 28 29 30 31 32 33 34 35 36 37 38 39 40 41 42 43 44 45 46 47 48 49 50

000
ASUS43 KFSD 240702
RWRSD

WEATHER ROUNDUP FOR SOUTH DAKOTA
NATIONAL WEATHER SERVICE SIOUX FALLS SD
200 AM CDT SUN SEP 24 2017

NOTE: "FAIR" INDICATES FEW OR NO CLOUDS BELOW 12,000 FEET WITH NO
SIGNIFICANT WEATHER AND/OR OBSTRUCTIONS TO VISIBILITY.


SDZ001>005-009-010-012>017-240800-
NORTHWEST AND NORTH CENTRAL SOUTH DAKOTA

CITY           SKY/WX    TMP DP  RH WIND       PRES   REMARKS
BUFFALO          N/A     45  43  93 N15       29.95F
FAITH            N/A     46  46 100 N16       29.97F
MOBRIDGE       RAIN      53  51  93 N12       29.92F
$$

SDZ012>016-024>037-041>051-057-063-072>074-240800-
SOUTHWEST AND SOUTH CENTRAL SOUTH DAKOTA

CITY           SKY/WX    TMP DP  RH WIND       PRES   REMARKS
RAPID CTY ARPT NOT AVBL
PIERRE         LGT RAIN  52  50  93 N8        29.89F
CUSTER         CLOUDY    40  37  89 W6        29.98R
PHILIP         LGT RAIN  49  49 100 N13       29.94F
PINE RIDGE     LGT RAIN  47  47 100 N8        29.98S
SPEARFISH      LGT RAIN  43  43 100 NE6       30.01S VSB 1
WINNER         LGT RAIN  52  51  97 N5        29.92F
$$

SDZ004>011-016>023-039-040-240800-
NORTHEAST SOUTH DAKOTA

CITY           SKY/WX    TMP DP  RH WIND       PRES   REMARKS
ABERDEEN       LGT RAIN  54  54 100 NW7       29.91R
WATERTOWN      CLOUDY    61  61 100 E6        29.88F
BROOKINGS      CLOUDY    59  58  96 E10       29.90F
SISSETON         N/A     56  56 100 SW6       29.89F
$$

SDZ017-020-022-023-036>040-048>070-240800-
SOUTHEAST SOUTH DAKOTA

CITY           SKY/WX    TMP DP  RH WIND       PRES   REMARKS
SIOUX FALLS    CLOUDY    59  58  96 E7        29.90F
HURON          LGT RAIN  54  54 100 N8        29.86F
CHAMBERLAIN    RAIN      54  54 100 NW5       29.91F
MITCHELL       CLOUDY    60  59  96 W8        29.90R
YANKTON        MOCLDY    59  58  96 E5        29.88S
$$

ABBREVIATIONS USED IN REMARKS
   TC - TEMPERATURE IN CELSIUS
  WCI - WIND CHILL INDEX
   HX - HEAT INDEX
  VSB - VISIBILITY





USA.gov is the U.S. government's official web portal to all federal, state and local government web resources and services.